Location: Highland Meadows Observing Site
(48.4428°N, 114.5461°W)
Time: 16:33:13

Gurwin Techsat 1B - Visible Passes

Search period start: 27 October 2016 00:00
Search period end: 06 November 2016 00:00
Orbit: 812 x 814 km, 98.6° (Epoch: 26 October)

Date Brightness Start Highest point End Pass type
(mag) Time Alt. Az. Time Alt. Az. Time Alt. Az.
27 Oct 11.1 04:29:49 10° N 04:30:21 13° N 04:30:21 13° N visible
28 Oct 11.3 04:06:55 10° NNE 04:07:10 11° NNE 04:07:10 11° NNE visible
29 Oct 11.0 05:25:00 10° N 05:25:11 11° NNW 05:25:11 11° NNW visible
30 Oct 11.1 05:01:45 10° N 05:02:00 11° N 05:02:00 11° N visible
31 Oct 11.2 04:38:42 10° N 04:38:49 11° N 04:38:49 11° N visible
